Regional Weather Roundup
Issued by NWS Sterling, VA

Home | Current Version | Previous Version | Text Only | Print | Product List | Glossary On
Versions: 1 2 3 4 5 6 7 8 9 10 11 12 13 14 15 16 17 18 19 20 21 22 23 24 25 26 27 28 29 30 31 32 33 34 35 36 37 38 39 40 41 42 43 44 45 46 47 48 49 50
000
ASUS41 KLWX 241311
RWRLWX

REGIONAL WEATHER ROUNDUP
NATIONAL WEATHER SERVICE BALTIMORE MD/WASHINGTON DC
900 AM EDT MON APR 24 2017

Note: "FAIR" indicates few or no clouds below 12,000 feet
with no significant weather and/or obstructions to visibility.
 TC=TEMPERATURE CELSIUS

 * =Non NWS site. Station does not report precipitation (e.g. rain,
    snow, etc.), thunder, or fog.

DCZ001-MDZ009-015-VAZ040>042-051-053>054-241400-
WASHINGTON METRO

CITY           SKY/WX    TMP DP  RH WIND       PRES   REMARKS
WASHINGTON NAT LGT RAIN  53  49  86 NE15      30.10S
DULLES         CLOUDY    53  48  83 NE10      30.09R
ANDREWS AFB    CLOUDY    51  46  82 N13       30.07S
FT BELVOIR     CLOUDY    52  46  82 N5        30.07F
QUANTICO       CLOUDY    55  47  74 NE16G25   30.08S
COLLEGE PARK*  CLOUDY    52  47  83 NE5       30.10R
LEESBURG*      CLOUDY    52  52 100 NE7       30.11R
MANASSAS*      LGT RAIN  52  49  89 NE6       30.09S

$$

MDZ006>007-011-014-241400-
BALTIMORE METRO

CITY           SKY/WX    TMP DP  RH WIND       PRES   REMARKS
BWI AIRPORT    CLOUDY    53  47  79 NE12      30.11R
MD SCIENCE CTR   N/A     55  43  63 MISG      30.12R
ANNAPOLIS      CLOUDY    53  46  77 NE12      30.10S
FORT MEADE*    CLOUDY    52  46  82 NE5       30.13S

$$

MDZ012-015-019>023-241400-
MARYLAND EASTERN SHORE

CITY           SKY/WX    TMP DP  RH WIND       PRES   REMARKS
OCEAN CITY     CLOUDY    54  49  83 NE13      30.06S
SALISBURY      CLOUDY    54  51  90 NE13      30.06S
BAY BRIDGE AP* CLOUDY    50  46  87 NE8       30.11R FOG
CAMBRIDGE*     CLOUDY    54  46  76 N7G16     30.07F
EASTON*        PTSUNNY   54  46  76 NE9       30.13R

$$

MDZ017>025-241400-
SOUTHERN MARYLAND

CITY           SKY/WX    TMP DP  RH WIND       PRES   REMARKS
PATUXENT RIVER DRIZZLE   53  51  93 NE13      30.05F
ST INIGOES     LGT RAIN  52  49  89 NE10      30.03F FOG
LEONARDTOWN*   CLOUDY    52  46  82 N6        30.06F

$$

MDZ003>005-241400-
NORTH CENTRAL MARYLAND

CITY           SKY/WX    TMP DP  RH WIND       PRES   REMARKS
FREDERICK*     CLOUDY    54  54 100 NE3       30.14R
HAGERSTOWN APT CLOUDY    52  50  93 N7        30.10S
WESTMINSTER*   DRIZZLE   52  48  87 NE5       30.11R

$$

MDZ501>502-241400-
WESTERN MARYLAND

CITY           SKY/WX    TMP DP  RH WIND       PRES   REMARKS
OAKLAND*         N/A     39  39 100 SE23G29   30.04S WCI  29
CUMBERLAND*    CLOUDY    50  50 100 N3        30.15S

$$

VAZ025>031-241400-
SHENANDOAH VALLEY

CITY           SKY/WX    TMP DP  RH WIND       PRES   REMARKS
WINCHESTER*    RAIN      48  46  93 CALM      30.09R
FRONT ROYAL*   CLOUDY    50  50 100 N5        30.08S
LURAY*         LGT RAIN  48  48 100 N7        30.07S
NEW MARKET*    CLOUDY    48  46  95 N9        30.07R
STAUNTON*      HVY RAIN  46  46  97 N6        30.08S
WAYNESBORO*    CLOUDY    46  46 100 N7        30.05S

$$

WVZ021-048>050-054>055-241400-
EASTERN WEST VIRGINIA PANHANDLE

CITY           SKY/WX    TMP DP  RH WIND       PRES   REMARKS
MARTINSBURG    CLOUDY    51  48  89 N3        30.09S
PETERSBURG*    LGT RAIN  49  48  94 CALM      30.11S

$$

VAZ036>039-050-241400-
CENTRAL FOOTHILLS

CITY           SKY/WX    TMP DP  RH WIND       PRES   REMARKS
CHARLOTTESVILL LGT RAIN  49  47  93 N8        30.05R FOG
CULPEPER*      DRIZZLE   51  49  95 N6        30.09S
ORANGE*        DRIZZLE   46  45  93 NE10G16   30.05F
GORDONSVILLE*  CLOUDY    47  47  98 NE10      30.05S FOG
WARRENTON*     CLOUDY    51  47  86 N5        30.08R

$$

VAZ055>057-241400-
NORTH AND CENTRAL PIEDMONT

CITY           SKY/WX    TMP DP  RH WIND       PRES   REMARKS
FREDERICKSBRG* CLOUDY    52  46  80 N7        30.05F
STAFFORD*      DRIZZLE   51  48  87 NE7       30.10S

$$

NCZ024-NYZ072-PAZ021-071-VAZ022-071-241400-
OTHER REGIONAL OBSERVATIONS

CITY           SKY/WX    TMP DP  RH WIND       PRES   REMARKS
NEW YORK CITY  CLOUDY    53  44  71 E6        30.19S
PHILADELPHIA   CLOUDY    52  41  66 NE9       30.15R
PITTSBURGH     PTSUNNY   52  38  58 E13       30.03F
ROANOKE        LGT RAIN  49  48  97 VRB3      30.01R
RICHMOND       DRZL/FOG  51  50  96 NE14G24   30.00S VSB 1
RALEIGH        RAIN      54  52  93 NE9       29.89S FOG

$$

ANZ530>537-241400-
MARINE OBSERVATIONS

STATION/POSITION TIME  TEMP    WIND        PRES
                       AIR SEA DIR/SP/G
                 (UTC) (F)     (DEG/KT/KT) (MB)
THOMAS PT LIGHT  1200   52 58   30/ 15/ 17   N/A
BALT KEY BRIDGE  1248   53      40/  8/ 10 1019.7R
COVE POINT       1248   52      30/ 12/ 16 1018.7R
LEWISETTA        1248   53 62   60/  9/ 15 1016.9R
SOLOMONS ISLAND  1242   52 61   20/  9/ 12   N/A
PINEY POINT      1248           50/  9/ 11   N/A

$$




USA.gov is the U.S. government's official web portal to all federal, state and local government web resources and services.